RH
54 54 79 79 78 71 79 78 67 74 59 55 52 50 50 53 58 72 72 59 61 61 61 61 62 45 45 54 49 39 40 43 50 77 84 72 54 65 70 47 74 62 54 69 70 70 73 69 72
58 79 84 92 74 72 77 83 95 86 72 55 62 56 60 64 93 76 76 61 59 59 59 51 61 40 42 56 49 40 46 55 72 79 85 68 72 76 78 59 81 82 65 74 74 71 72 68 73
82 85 89 82 74 76 84 91 92 87 65 78 76 80 85 91 87 78 64 64 60 58 58 52 64 52 50 61 56 44 53 57 69 73 74 76 72 75 76 77 56 71 76 68 65 69 65 67 78
85 92 90 80 75 70 86 92 92 92 82 86 75 78 94 93 90 70 58 63 61 60 57 58 70 72 70 62 66 56 61 75 69 74 64 65 68 65 73 68 81 62 78 68 68 66 70 79 85
86 93 85 82 78 78 84 91 94 87 93 86 74 84 98 96 79 64 65 64 62 58 55 69 68 67 64 61 49 64 66 73 64 75 66 66 72 73 74 78 79 55 72 72 61 64 78 80 82
89 86 85 76 70 78 83 92 96 90 90 88 80 78 95 84 73 70 78 68 57 54 72 79 72 74 58 59 60 69 63 72 63 60 70 74 75 74 73 77 60 56 65 69 72 76 80 78 74
79 78 75 69 66 73 82 85 82 82 75 78 80 78 98 98 75 75 86 62 58 56 63 75 65 49 55 70 67 69 70 59 62 62 67 72 75 74 72 75 52 55 67 69 78 77 73 68 65
90 68 75 62 61 86 83 94 83 69 71 77 75 76 90 97 77 77 72 69 62 63 64 61 46 77 86 74 77 74 63 69 54 60 64 78 77 75 66 68 56 56 65 70 73 72 74 72 66
86 73 69 60 58 78 80 82 86 85 74 66 71 79 78 95 82 84 94 88 81 70 72 52 82 64 77 79 76 66 67 62 64 56 63 65 72 69 93 62 54 69 74 78 75 77 78 70 67
78 79 61 52 53 62 74 89 89 72 66 83 87 92 90 94 93 92 95 95 95 83 76 51 79 67 74 81 78 54 42 45 52 60 62 65 62 60 83 69 47 68 74 73 73 75 74 74 79
69 68 55 50 54 62 65 72 83 65 68 79 88 96 92 89 88 88 91 91 90 68 53 57 60 78 74 83 57 39 52 56 60 63 64 65 62 58 57 50 50 64 72 73 73 73 72 73 74
72 57 56 51 56 59 60 69 68 64 68 69 85 84 86 84 82 83 87 92 89 55 51 56 60 70 62 57 43 54 56 61 62 63 62 62 69 69 67 64 66 68 70 69 71 73 67 70 73
62 54 48 46 46 50 64 62 62 66 73 79 86 88 84 83 83 86 90 88 63 44 49 52 56 60 60 51 40 54 53 56 60 61 62 67 71 74 74 72 69 68 68 69 69 72 72 69 70
46 43 39 36 36 45 53 62 64 71 78 86 86 85 83 87 82 92 94 66 41 40 44 49 53 60 59 46 56 53 57 57 62 68 70 69 67 76 76 73 70 67 65 68 68 69 70 72 70
41 37 24 48 51 56 60 67 63 80 87 89 87 83 82 90 89 89 60 52 48 42 46 46 54 58 57 49 54 70 74 66 67 73 69 69 71 73 76 77 74 70 68 65 66 68 69 69 70
32 25 31 52 56 63 58 62 62 83 89 94 94 83 84 86 88 85 70 69 61 46 46 45 53 56 51 57 58 69 72 73 72 67 68 73 74 71 74 74 75 70 71 69 68 68 69 70 71
29 36 29 28 60 61 56 56 77 89 86 88 89 77 81 83 93 67 67 63 59 46 43 43 48 53 47 63 67 68 72 72 72 70 69 74 75 76 72 76 72 67 67 66 64 68 68 68 71
39 31 25 31 51 59 56 54 72 81 84 79 91 76 76 76 83 77 70 66 59 42 41 44 48 52 47 59 69 72 76 75 73 74 75 78 76 78 75 74 71 67 64 65 63 65 67 64 64
30 28 28 25 31 32 23 25 48 74 80 76 79 77 72 71 77 79 66 64 57 44 41 47 46 49 52 54 69 71 70 70 72 74 78 79 78 76 77 72 73 68 61 62 65 62 60 59 62
34 32 30 24 22 24 24 29 65 62 70 77 70 69 68 70 72 77 70 68 60 48 52 52 50 50 56 63 67 67 69 71 70 74 77 75 78 73 75 70 66 66 62 61 62 61 61 58 53
34 34 31 26 23 36 54 54 67 71 73 77 78 69 67 66 66 70 75 76 62 57 55 58 54 54 60 63 66 69 70 71 70 72 70 77 78 78 74 74 67 69 69 61 58 61 62 58 50
39 28 27 27 26 22 37 27 57 67 73 75 74 75 67 67 66 65 70 73 66 60 57 55 57 58 58 64 64 69 69 70 67 64 70 83 79 80 78 76 74 71 72 65 58 59 60 57 53
36 27 27 26 26 22 26 30 40 63 70 75 75 74 67 66 66 65 66 68 58 59 59 58 56 58 58 54 59 68 73 62 66 67 68 73 74 73 74 70 74 72 72 68 65 58 59 57 52
25 22 21 21 21 25 19 26 27 39 44 38 58 71 71 67 65 66 65 68 57 56 56 57 58 57 57 58 55 62 70 63 63 67 67 71 76 72 70 72 69 73 72 74 64 59 59 57 52
24 24 30 30 29 26 21 22 38 32 31 34 43 48 70 69 67 66 67 67 68 59 57 56 56 57 55 59 56 55 71 68 62 57 64 64 69 72 71 72 72 70 72 72 68 59 57 60 59
24 23 25 33 30 23 22 20 34 23 30 46 62 56 60 73 67 66 69 70 70 62 58 57 55 55 56 56 55 52 62 73 67 59 60 62 64 66 68 72 74 68 71 74 74 68 57 56 64
21 24 17 22 25 21 20 25 24 20 33 53 72 68 63 68 70 68 68 70 71 63 60 58 56 54 55 53 55 52 56 65 69 64 60 63 62 66 71 73 72 70 74 76 68 74 62 59 60
20 20 21 22 30 26 32 40 32 31 47 63 83 84 64 67 74 72 69 71 73 64 62 59 56 53 52 54 54 53 52 57 62 63 60 58 60 63 65 72 76 74 71 73 74 67 70 64 58
22 23 25 22 25 23 31 37 21 38 63 74 70 90 95 79 74 76 75 76 76 70 63 59 58 54 52 55 56 54 51 56 58 58 59 55 59 64 61 63 66 72 73 66 70 66 61 69 68
24 28 26 24 35 31 27 31 25 45 57 59 73 76 86 98 100 98 89 83 81 73 69 62 59 57 54 53 55 56 50 54 59 56 53 51 60 59 62 59 62 66 68 72 72 72 71 69 64
Wind_Speed
11 11 7 2 2 1 2 4 5 8 6 2 21 8 10 2 1 2 22 31 31 26 22 19 17 16 15 14 11 10 9 9 9 10 9 8 9 10 9 11 10 9 9 9 10 10 11 11 11
13 9 3 1 2 2 2 4 14 9 3 23 12 11 5 4 3 13 31 32 30 26 21 19 16 16 14 12 10 9 9 9 8 8 8 9 10 9 9 11 10 9 10 10 10 11 11 12 11
11 4 0 1 1 1 2 3 10 7 13 9 5 7 3 2 5 30 29 34 30 25 21 19 16 14 14 11 9 8 8 9 8 8 9 9 9 10 10 10 10 10 11 11 11 11 11 12 12
5 1 1 1 3 2 4 8 8 11 2 6 8 7 4 3 20 22 38 33 29 25 21 19 15 13 12 9 8 8 8 8 9 8 9 9 9 10 10 11 10 10 12 11 11 12 12 12 10
4 1 1 2 2 1 8 12 10 9 7 2 3 4 5 11 13 34 35 32 28 25 20 17 14 13 12 10 9 8 8 8 8 8 10 10 11 11 10 10 9 10 12 12 12 13 12 12 13
1 0 1 4 7 5 7 11 8 10 8 7 9 10 5 12 22 34 31 30 27 23 19 16 14 12 11 10 10 8 9 8 9 8 10 11 11 11 11 11 8 10 13 15 14 13 14 12 13
1 1 3 4 6 4 4 7 19 12 9 9 14 5 10 13 29 31 28 30 26 22 19 15 14 11 11 10 10 10 9 9 8 10 11 11 11 12 13 12 10 14 15 15 15 16 15 14 12
1 1 3 3 9 5 7 4 3 9 5 15 12 6 12 22 34 31 29 26 24 21 18 15 14 13 11 12 11 10 10 8 10 11 12 10 12 13 13 13 13 16 15 14 13 14 15 13 14
1 2 2 5 8 5 9 5 6 4 16 5 11 10 23 31 34 30 25 23 21 20 18 15 14 13 13 12 11 11 10 10 11 11 11 12 13 13 13 13 14 15 16 15 15 15 14 14 14
2 2 2 2 4 4 9 9 8 5 13 8 14 20 33 33 31 29 27 24 20 20 18 15 13 14 14 13 12 11 12 12 12 14 13 13 14 12 12 12 13 13 13 13 13 12 12 11 12
2 2 2 4 5 7 12 11 13 9 6 9 24 32 33 34 30 28 25 23 21 21 19 17 15 15 14 14 14 13 15 15 15 15 14 15 14 13 13 14 14 14 12 12 10 10 11 11 11
3 6 7 1 2 3 5 10 9 12 3 11 22 34 37 34 32 29 25 22 22 23 21 18 17 16 16 15 15 16 17 16 16 15 16 15 15 13 13 13 13 13 11 9 9 8 8 8 9
9 5 5 6 6 5 6 9 5 12 7 18 28 30 32 30 28 24 22 22 23 23 21 19 18 17 17 17 17 17 17 16 16 15 14 13 12 11 9 9 8 7 7 7 7 10 9 7 9
2 6 14 7 3 6 8 5 6 9 18 24 31 30 31 29 29 24 23 24 23 22 21 20 19 18 19 18 19 17 17 15 13 13 11 10 9 7 7 6 7 5 6 6 7 8 10 9 8
3 6 4 5 5 5 10 6 5 19 24 27 26 28 30 28 28 27 28 25 22 22 22 21 19 19 19 19 19 17 14 13 12 9 9 8 5 4 4 5 7 6 5 5 4 5 7 7 7
3 3 3 5 6 5 5 3 7 22 28 28 29 27 28 29 30 27 26 23 22 22 23 21 21 21 21 20 19 16 13 12 10 9 7 5 2 5 6 6 7 6 6 5 2 3 5 6 6
2 5 4 3 3 5 5 4 8 19 21 23 29 28 29 28 26 30 27 22 20 21 23 22 21 22 22 21 18 16 12 11 10 8 6 6 4 4 5 5 8 8 6 5 4 4 5 5 5
8 5 3 4 4 2 2 3 8 16 18 19 24 27 28 28 28 28 28 25 20 20 23 23 22 22 23 22 19 16 14 11 10 8 5 5 5 4 5 6 8 10 8 6 6 5 6 6 6
3 3 3 2 2 2 3 6 6 16 17 20 25 27 28 29 27 25 30 26 23 23 25 24 24 24 24 25 23 19 14 11 10 8 7 5 5 5 6 6 10 10 9 7 6 6 5 5 4
4 4 2 1 4 3 3 6 3 13 18 22 25 27 28 27 27 26 28 28 27 27 26 25 24 24 25 23 21 20 15 12 10 8 7 5 4 5 8 7 9 9 8 8 7 4 5 4 4
6 6 4 0 3 2 1 2 1 4 10 16 20 25 25 29 31 29 27 28 31 31 29 26 24 23 23 23 21 19 14 13 13 11 8 6 5 4 8 10 10 7 6 7 6 3 3 4 5
8 7 5 3 2 3 2 1 2 5 10 13 19 25 28 29 29 30 29 29 32 33 31 29 25 23 22 23 24 20 18 18 15 10 8 7 6 5 6 9 9 5 10 8 7 6 3 3 4
4 7 4 3 2 2 4 4 4 3 2 10 15 21 29 29 31 32 32 32 33 34 32 31 30 28 25 24 24 21 20 19 15 11 10 8 8 7 6 7 10 9 8 9 8 8 4 6 3
10 7 4 3 2 5 5 4 4 5 7 7 12 23 26 29 30 31 32 31 35 33 32 31 31 31 29 26 24 23 22 20 16 15 12 12 9 8 8 8 9 9 9 10 9 10 9 6 5
9 10 5 6 5 6 2 6 7 7 8 11 15 20 28 29 30 30 34 34 34 36 35 32 27 30 32 30 27 24 25 22 19 17 15 12 12 9 10 10 9 8 8 8 7 11 11 8 6
12 13 5 7 8 9 3 7 7 10 11 15 16 6 16 27 30 32 32 34 37 38 37 34 30 26 32 33 29 26 26 26 23 19 19 16 14 11 9 8 8 6 8 9 8 9 12 12 8
6 8 1 4 2 8 4 3 5 15 18 25 24 16 6 18 27 29 29 32 34 39 41 39 34 31 27 34 32 29 28 28 27 23 20 18 17 15 13 11 7 9 8 6 10 9 10 11 10
1 4 7 3 7 9 3 4 5 16 18 19 22 25 12 11 19 22 27 27 30 34 36 37 36 33 30 31 34 32 30 27 27 25 23 23 20 18 16 14 12 10 9 10 7 9 9 11 11
1 3 2 1 2 6 7 5 6 10 12 14 21 24 24 12 6 14 17 20 23 27 28 33 35 36 35 33 35 36 34 31 27 26 25 24 23 20 18 16 14 13 12 11 10 8 9 10 11
8 4 1 7 6 2 1 5 7 10 14 18 21 24 24 24 20 14 4 10 15 23 26 31 32 34 36 35 32 37 36 35 32 26 26 27 26 25 20 18 16 15 16 15 13 11 10 8 9
Wind_Direction
148 143 142 138 209 233 286 25 52 69 116 106 145 152 160 148 118 101 148 158 160 151 145 138 141 138 137 129 122 114 115 109 97 92 90 78 81 82 74 89 87 94 121 117 110 110 104 102 100
145 140 148 199 240 248 92 106 62 34 107 128 103 124 121 108 75 143 147 154 159 153 145 143 144 144 142 132 118 113 112 104 98 96 97 88 87 88 86 94 98 93 101 123 114 112 108 107 101
145 146 51 319 283 231 80 97 90 55 122 37 106 92 65 64 143 147 156 154 159 154 147 146 147 148 146 137 120 110 114 111 103 96 91 84 93 91 92 91 86 102 91 112 123 112 113 108 107
149 97 60 271 265 279 127 140 109 105 144 22 111 80 68 201 138 155 154 156 160 156 152 150 148 149 150 146 126 124 120 113 107 92 90 88 96 93 92 95 93 103 94 103 120 118 113 117 108
142 73 283 263 300 109 106 127 155 142 167 103 145 107 84 138 150 153 153 159 161 156 153 149 149 148 146 146 139 138 131 120 111 103 93 96 92 91 88 87 91 97 119 121 118 115 110 107 105
94 107 284 15 11 94 110 154 165 163 160 136 99 109 117 162 156 154 155 160 161 155 153 152 151 150 151 144 142 140 131 123 115 111 108 98 93 94 85 80 83 102 114 111 108 110 111 101 106
339 305 341 334 9 98 94 117 153 167 166 160 149 107 135 154 161 156 156 160 160 158 157 154 154 156 148 147 144 139 132 121 113 113 108 101 96 96 88 81 90 105 112 108 102 102 102 96 92
314 306 316 352 22 82 127 169 158 162 128 136 154 151 161 165 163 157 158 161 162 161 159 160 157 155 152 149 144 140 129 110 119 119 113 106 100 97 93 85 95 106 106 104 102 96 93 89 85
278 260 64 31 26 115 157 147 169 98 141 144 183 157 160 157 160 158 158 161 164 165 163 165 158 158 156 146 144 141 137 134 125 121 114 113 106 103 90 90 99 102 103 98 98 97 88 81 80
254 256 103 27 16 116 144 122 159 158 146 85 112 131 150 156 161 161 164 166 169 170 168 167 165 158 157 149 150 148 132 129 124 117 114 113 108 103 102 100 105 106 103 100 98 93 78 84 80
200 241 77 58 70 135 154 158 162 174 174 168 154 151 153 160 165 167 169 173 172 173 171 167 168 163 163 157 151 146 131 128 124 115 112 110 105 101 99 101 106 109 108 101 92 79 84 90 77
251 254 268 336 75 139 176 150 190 184 127 174 162 158 157 165 170 172 172 176 178 175 173 167 167 168 162 157 149 143 133 131 124 118 113 112 106 102 95 96 104 111 110 98 90 78 90 86 71
229 274 295 270 266 245 172 190 157 175 137 151 153 160 164 166 173 176 176 178 181 178 176 170 170 170 161 161 155 151 139 132 129 123 121 120 114 109 104 100 105 114 114 100 86 87 83 107 88
209 264 281 304 286 195 172 156 161 144 148 149 159 167 171 173 176 181 182 182 183 180 177 174 174 171 166 165 159 157 149 142 138 132 129 124 126 112 109 121 120 109 135 136 95 80 79 92 95
285 285 300 52 144 141 143 139 171 147 151 152 166 171 175 180 181 187 180 182 183 187 181 178 176 172 172 168 169 165 160 157 153 156 147 142 129 137 136 145 144 136 132 161 116 84 85 97 97
211 248 224 56 147 131 211 103 155 162 157 163 172 178 181 187 189 189 188 186 193 190 188 182 181 175 175 171 170 169 169 163 163 162 163 151 145 138 145 154 149 146 124 137 132 104 89 106 95
168 184 198 117 101 135 223 108 144 168 170 172 178 182 186 189 193 193 193 193 197 195 191 186 184 179 176 173 171 173 164 164 168 170 175 186 174 158 153 169 168 158 133 124 115 123 116 118 81
169 163 123 99 160 182 168 188 159 177 184 187 188 189 189 192 195 196 200 201 198 194 192 190 190 185 180 180 176 177 175 177 180 176 166 175 183 169 158 165 165 161 149 128 132 116 120 107 83
88 139 145 106 135 267 268 280 214 185 188 186 190 193 193 195 193 195 197 196 196 195 190 189 189 187 185 185 186 191 198 194 195 193 180 174 172 171 170 159 169 171 164 149 140 131 126 112 83
202 178 196 309 96 238 302 306 355 194 197 189 191 193 195 197 196 197 201 200 201 197 193 191 191 191 191 195 202 200 194 195 195 197 189 173 158 173 168 169 169 163 170 166 151 120 144 141 128
193 207 172 176 327 82 316 227 92 174 195 195 200 198 198 198 198 201 201 202 205 206 203 199 195 198 201 203 200 197 204 201 200 199 193 164 167 166 189 180 171 182 185 191 185 164 135 166 187
196 199 185 192 256 192 324 217 200 182 204 202 199 199 199 200 202 200 202 204 208 212 210 210 206 206 209 207 206 214 212 200 199 200 191 182 187 174 173 187 186 187 187 188 189 201 227 175 184
198 162 191 184 214 280 187 238 75 353 226 231 217 209 206 203 201 201 202 204 211 215 216 218 216 214 215 214 216 217 214 213 212 202 191 191 192 183 179 186 192 188 189 203 198 207 231 194 211
146 116 77 87 177 223 176 246 74 26 346 320 244 221 214 210 206 207 206 206 212 214 217 225 223 221 220 219 221 218 213 215 216 211 202 198 198 195 191 181 187 205 211 208 208 219 212 209 243
174 171 160 187 195 208 145 207 60 14 6 344 321 241 212 208 207 206 204 206 212 214 217 223 226 223 222 223 225 227 219 221 230 225 216 217 209 206 202 200 205 208 206 194 207 211 212 221 227
189 198 195 182 194 185 154 181 117 40 28 5 1 287 218 211 207 207 206 206 211 216 218 222 227 230 226 223 226 230 228 226 229 232 229 231 222 207 200 201 207 205 218 215 219 211 217 224 234
157 202 283 115 69 202 151 110 180 11 15 17 13 15 246 213 210 209 206 206 210 218 223 225 229 231 233 226 228 230 231 230 230 232 230 232 226 218 214 211 203 211 217 221 219 223 215 218 229
297 115 181 218 176 184 119 94 27 5 3 6 15 13 0 218 211 207 205 207 210 219 225 229 233 236 238 233 231 232 233 230 232 232 236 233 228 219 220 222 223 222 222 226 228 219 219 226 230
151 133 68 153 309 182 161 111 21 29 25 22 20 23 35 54 193 206 204 210 211 218 222 227 233 236 239 240 234 233 237 233 233 233 235 231 228 226 225 226 228 225 220 215 220 223 227 229 233
49 57 344 227 179 64 29 107 43 57 54 43 38 36 40 49 56 68 169 211 217 227 228 233 233 236 239 242 244 237 239 239 235 235 234 230 229 229 228 228 229 223 218 221 225 226 235 238 244